Location: Alpha Ridge Park
(39.3209°N, 76.9128°W)
Time: 07:48:51
(UTC-04:00)

Vanguard 2 Rocket - Pass Details

Date: 30 May 2019
Orbit: 554 x 3326 km, 32.9° (Epoch: 16 June)

Event Time Altitude Azimuth Distance (km) Brightness Sun altitude
Rises 00:32:27 0° 170° (S) 6,523 - -28.5°
Reaches altitude 10° 00:44:58 10° 133° (SE) 6,143 - -28.8°
Maximum altitude 00:46:31 10° 128° (SE) 6,174 - -28.8°
Exits shadow 00:46:44 10° 128° (SE) 6,180 10.7 -28.8°
Drops below altitude 10° 00:48:04 10° 124° (ESE) 6,222 10.8 -28.8°
Sets 01:01:35 0° 89° (E) 7,221 11.5 -28.9°
